EN

Hourly Weather Ladna

Today, 1 August, Sunday

Time Temperature Precipitation Wind Pressure Humidity
00:00 +18°C° 0 mm 2 mps 736 mmHg 91%
01:00 +18°C° 0 mm 2 mps 736 mmHg 91%
02:00 +17°C° 0 mm 2 mps 736 mmHg 90%
03:00 +18°C° 0 mm 1 mps 735 mmHg 90%
04:00 +18°C° 0 mm 1 mps 735 mmHg 89%
05:00 +19°C° 0 mm 1 mps 735 mmHg 84%
06:00 +20°C° 0 mm 2 mps 735 mmHg 79%
07:00 +23°C° 0 mm 2 mps 735 mmHg 74%
08:00 +22°C° 0 mm 3 mps 735 mmHg 73%
09:00 +23°C° 0 mm 4 mps 734 mmHg 71%
10:00 +23°C° 0 mm 5 mps 734 mmHg 70%
11:00 +26°C° 0 mm 5 mps 733 mmHg 62%
12:00 +28°C° 0 mm 5 mps 733 mmHg 54%
13:00 +30°C° 0 mm 5 mps 732 mmHg 47%
14:00 +29°C° 0.1 mm 6 mps 732 mmHg 52%
15:00 +29°C° 0.1 mm 6 mps 731 mmHg 57%
16:00 +28°C° 0.1 mm 6 mps 731 mmHg 62%
17:00 +25°C° 1.6 mm 5 mps 731 mmHg 73%
18:00 +21°C° 1.6 mm 5 mps 732 mmHg 85%
19:00 +19°C° 1.6 mm 4 mps 733 mmHg 96%
20:00 +18°C° 0.1 mm 4 mps 733 mmHg 96%
21:00 +18°C° 0.1 mm 3 mps 733 mmHg 96%
22:00 +18°C° 0.1 mm 2 mps 733 mmHg 96%
23:00 +17°C° 0.1 mm 2 mps 733 mmHg 96%

Tomorrow, 2 August, Monday

Time Temperature Precipitation Wind Pressure Humidity
00:00 +17°C° 0.1 mm 2 mps 733 mmHg 96%
01:00 +17°C° 0.1 mm 3 mps 733 mmHg 96%
02:00 +16°C° 0.2 mm 3 mps 734 mmHg 96%
03:00 +16°C° 0.2 mm 3 mps 734 mmHg 96%
04:00 +15°C° 0.2 mm 4 mps 734 mmHg 96%
05:00 +16°C° 0.3 mm 3 mps 735 mmHg 95%
06:00 +14°C° 0.3 mm 3 mps 735 mmHg 95%
07:00 +14°C° 0.3 mm 3 mps 736 mmHg 95%
08:00 +14°C° 0.4 mm 3 mps 736 mmHg 94%
09:00 +16°C° 0.4 mm 3 mps 737 mmHg 94%
10:00 +16°C° 0.4 mm 3 mps 737 mmHg 94%
11:00 +17°C° 0 mm 3 mps 737 mmHg 88%
12:00 +18°C° 0 mm 3 mps 737 mmHg 83%
13:00 +19°C° 0 mm 3 mps 737 mmHg 78%
14:00 +20°C° 0.1 mm 3 mps 737 mmHg 73%
15:00 +20°C° 0.1 mm 3 mps 737 mmHg 68%
16:00 +21°C° 0.1 mm 3 mps 738 mmHg 64%
17:00 +20°C° 0.4 mm 3 mps 738 mmHg 71%
18:00 +19°C° 0.4 mm 2 mps 738 mmHg 78%
19:00 +17°C° 0.4 mm 2 mps 738 mmHg 84%
20:00 +17°C° 0.1 mm 2 mps 738 mmHg 86%
21:00 +16°C° 0.1 mm 2 mps 738 mmHg 88%
22:00 +15°C° 0.1 mm 2 mps 739 mmHg 89%
23:00 +15°C° 0 mm 2 mps 739 mmHg 90%

Day after tomorrow, 3 August, Tuesday

Time Temperature Precipitation Wind Pressure Humidity
00:00 +15°C° 0 mm 1 mps 739 mmHg 91%
01:00 +14°C° 0 mm 1 mps 739 mmHg 91%
02:00 +14°C° 0 mm 1 mps 739 mmHg 92%
03:00 +14°C° 0 mm 1 mps 740 mmHg 92%
04:00 +13°C° 0 mm 1 mps 740 mmHg 92%
05:00 +15°C° 0 mm 1 mps 740 mmHg 88%
06:00 +16°C° 0 mm 1 mps 740 mmHg 84%
07:00 +19°C° 0 mm 1 mps 741 mmHg 80%
08:00 +19°C° 0.1 mm 2 mps 741 mmHg 73%
09:00 +21°C° 0.1 mm 2 mps 741 mmHg 67%
10:00 +23°C° 0.1 mm 2 mps 741 mmHg 60%
11:00 +24°C° 0 mm 2 mps 741 mmHg 56%
12:00 +25°C° 0 mm 2 mps 740 mmHg 52%
13:00 +26°C° 0 mm 2 mps 740 mmHg 48%
14:00 +26°C° 0 mm 2 mps 740 mmHg 48%
15:00 +26°C° 0 mm 1 mps 740 mmHg 47%
16:00 +26°C° 0 mm 1 mps 739 mmHg 47%
17:00 +25°C° 0 mm 1 mps 739 mmHg 53%
18:00 +23°C° 0 mm 1 mps 739 mmHg 59%
19:00 +21°C° 0 mm 2 mps 739 mmHg 65%
20:00 +20°C° 0.1 mm 2 mps 739 mmHg 69%
21:00 +19°C° 0.1 mm 2 mps 739 mmHg 74%
22:00 +17°C° 0.1 mm 2 mps 739 mmHg 79%
23:00 +17°C° 0 mm 2 mps 739 mmHg 81%

4 August, Wednesday

Time Temperature Precipitation Wind Pressure Humidity
00:00 +16°C° 0 mm 2 mps 738 mmHg 82%
01:00 +16°C° 0 mm 2 mps 738 mmHg 84%
02:00 +16°C° 0 mm 2 mps 738 mmHg 84%
03:00 +16°C° 0 mm 2 mps 738 mmHg 83%
04:00 +16°C° 0 mm 2 mps 737 mmHg 83%
05:00 +16°C° 0.1 mm 2 mps 738 mmHg 84%
06:00 +17°C° 0.1 mm 2 mps 738 mmHg 85%
07:00 +17°C° 0.1 mm 2 mps 738 mmHg 86%
08:00 +18°C° 0.1 mm 2 mps 739 mmHg 84%
09:00 +20°C° 0.1 mm 1 mps 739 mmHg 81%
10:00 +20°C° 0.1 mm 1 mps 739 mmHg 79%
11:00 +22°C° 0 mm 1 mps 738 mmHg 70%
12:00 +25°C° 0 mm 1 mps 738 mmHg 62%
13:00 +27°C° 0 mm 1 mps 737 mmHg 54%
14:00 +26°C° 0.2 mm 2 mps 737 mmHg 58%
15:00 +25°C° 0.2 mm 2 mps 737 mmHg 63%
16:00 +25°C° 0.2 mm 2 mps 737 mmHg 68%
17:00 +23°C° 0.3 mm 2 mps 737 mmHg 74%
18:00 +21°C° 0.3 mm 2 mps 737 mmHg 80%
19:00 +20°C° 0.3 mm 2 mps 737 mmHg 87%
20:00 +20°C° 0.2 mm 1 mps 737 mmHg 89%
21:00 +20°C° 0.2 mm 1 mps 737 mmHg 91%
22:00 +19°C° 0.2 mm 1 mps 737 mmHg 93%
23:00 +19°C° 0.1 mm 1 mps 737 mmHg 94%

5 August, Thursday

Time Temperature Precipitation Wind Pressure Humidity
00:00 +19°C° 0.1 mm 1 mps 737 mmHg 94%
01:00 +18°C° 0.1 mm 1 mps 737 mmHg 95%
02:00 +18°C° 0 mm 1 mps 737 mmHg 95%
03:00 +18°C° 0 mm 1 mps 737 mmHg 95%
04:00 +15°C° 0 mm 0 mps 737 mmHg 95%
05:00 +18°C° 0 mm 1 mps 737 mmHg 94%
06:00 +19°C° 0 mm 1 mps 737 mmHg 92%
07:00 +19°C° 0 mm 1 mps 737 mmHg 91%
08:00 +19°C° 0 mm 2 mps 737 mmHg 86%
09:00 +20°C° 0 mm 2 mps 737 mmHg 81%
10:00 +21°C° 0 mm 2 mps 737 mmHg 75%
11:00 +21°C° 0.3 mm 2 mps 736 mmHg 75%
12:00 +21°C° 0.3 mm 2 mps 736 mmHg 74%
13:00 +21°C° 0.3 mm 2 mps 736 mmHg 74%
14:00 +21°C° 0.9 mm 2 mps 736 mmHg 78%
15:00 +20°C° 0.9 mm 2 mps 735 mmHg 82%
16:00 +20°C° 0.9 mm 2 mps 735 mmHg 86%
17:00 +19°C° 0.6 mm 2 mps 735 mmHg 89%
18:00 +19°C° 0.6 mm 2 mps 734 mmHg 91%
19:00 +18°C° 0.6 mm 2 mps 734 mmHg 94%
20:00 +18°C° 0.6 mm 2 mps 734 mmHg 94%
21:00 +17°C° 0.6 mm 2 mps 734 mmHg 94%
22:00 +18°C° 0.6 mm 1 mps 734 mmHg 94%
23:00 +18°C° 0.1 mm 1 mps 734 mmHg 94%

6 August, Friday

Time Temperature Precipitation Wind Pressure Humidity
00:00 +18°C° 0.1 mm 1 mps 734 mmHg 94%
01:00 +18°C° 0.1 mm 1 mps 734 mmHg 94%
02:00 +16°C° 0 mm 1 mps 734 mmHg 94%
03:00 +16°C° 0 mm 1 mps 734 mmHg 95%
04:00 +15°C° 0 mm 1 mps 733 mmHg 95%
05:00 +16°C° 0 mm 1 mps 734 mmHg 92%
06:00 +17°C° 0 mm 2 mps 734 mmHg 89%
07:00 +18°C° 0 mm 2 mps 734 mmHg 86%
08:00 +19°C° 0.1 mm 2 mps 734 mmHg 79%
09:00 +20°C° 0.1 mm 2 mps 734 mmHg 73%
10:00 +21°C° 0.1 mm 3 mps 734 mmHg 67%
11:00 +22°C° 0.2 mm 3 mps 734 mmHg 62%
12:00 +24°C° 0.2 mm 2 mps 734 mmHg 57%
13:00 +25°C° 0.2 mm 2 mps 733 mmHg 52%
14:00 +24°C° 0.1 mm 2 mps 733 mmHg 54%
15:00 +24°C° 0.1 mm 2 mps 733 mmHg 56%
16:00 +24°C° 0.1 mm 2 mps 733 mmHg 58%
17:00 +23°C° 0.1 mm 2 mps 733 mmHg 63%
18:00 +20°C° 0.1 mm 2 mps 733 mmHg 67%
19:00 +20°C° 0.1 mm 1 mps 733 mmHg 72%
20:00 +20°C° 0 mm 1 mps 733 mmHg 73%
21:00 +19°C° 0 mm 1 mps 734 mmHg 74%
22:00 +19°C° 0 mm 1 mps 734 mmHg 75%
23:00 +17°C° 0 mm 2 mps 734 mmHg 75%
Show more